EKRAN 2 DEB, 59986

Orbit data source: Space-Track

EKRAN 2 DEB, 59986 is space debris in GEO originally from a launch on Tue, 20 Sep 1977 UTC launched from the Tyuratam Missile And Space Complex (TTMTR). Debris objects in space refer to the collection of defunct objects orbiting the Earth. Examples of debris include non-operational satellites, rocket bodies, and fragments generated from explosions, collisions, or faulty payload assembly.

Loading next visibility...
Identifier
59986, 1977-092M
Orbit
GEO
Country
Flag of CISCIS
Related business
Manufacturer
Unknown
Mission
Spacecraft
Bus & Motor
Unknown
Mass
Unknown
Launch date (UTC)
1977-09-20 (48 years ago)
Launch vehicle
Unknown
Launch site
Tyuratam Missile And Space Complex (TTMTR)
Object type
Payload
Rocket body
Debris
Shape & HBR
Unknown shape, 1.1 m
Radar Cross Section
RCS unknown

Expand to show TLE details & history
Last TLE update: 1 day ago

TLE from 1 day ago
0 EKRAN 2 DEB
1 59986U 77092M   26061.07882476 -.00000257  00000-0  00000-0 0  9994
2 59986   4.0502 272.4916 0041632 110.3278 113.8092  1.00936154 45449
Epoch: 2026-03-02T01:53Z
TLE epoch observation values (Epoch: 2026-03-02T01:53:30.459Z)
Latitude
-2.8418°
Longitude
-51.21303°
Altitude
35,673.477 km
Speed
3.076 km/s
True Right ascension
09h 08m 09s
True Declination
-2° 50' 20"
Sunlit
Object was in daylight at epoch
Visualization orbit readout
Latitude
Unknown
Longitude
Unknown
Altitude
Unknown
Speed
Unknown
Apparent Right ascension
Unknown
Apparent Declination
Unknown
Sunlit
N/A
Visualization observer readout
Local Sidereal Time
08:40:52
Azimuth
Unknown
Elevation
Unknown
Doppler factor
Unknown
Orbital elements
Apogee altitude
35,777.211 km
Perigee altitude
35,427.664 km
Semi-major axis
41,980.575 km
Eccentricity
0.00416
Inclination
4.0502°
RAAN
272.4916°
Arg. of periapsis
110.3278°
True anomaly
114.24475°
Mean anomaly
113.8092°
Eccentric anomaly
114.02707°
Mean motion
0.25233 °/min
Orbital period
1,426.7 mins
BSTAR
0
Loading maneuver chart data...
Computing Atmospheric mass density...
Loading historical data...
Loading historical data...
Loading historical data...
Loading historical data...
Loading historical data...
Loading historical data...
Loading historical data...

Documentation

Showing up to 5 results
|